Location: Dürabuch
(48.2640°N, 11.2185°E)
Time: 21:14:54
(UTC+00:00)

CZ-2C R/B - Pass Details

Date: 23 May 2024
Orbit: 783 x 868 km, 98.3° (Epoch: 14 June)

Event Time Altitude Azimuth Distance (km) Brightness Sun altitude
Exits shadow 02:29:15 10° 217° (SW) 2,359 4.4 -8.2°
Reaches altitude 10° 02:29:19 10° 218° (SW) 2,338 4.3 -8.2°
Maximum altitude 02:33:18 22° 269° (W) 1,647 3.8 -7.7°
Drops below altitude 10° 02:37:19 10° 320° (NW) 2,356 5.1 -7.2°
Sets 02:40:10 0° 335° (NNW) 3,297 6.0 -6.9°
